Theta_e
305 305 305 305 305 305 305 305 304 304 304 304 303 303 303 303 303 303 304 305 305 305 305 306 307 310 313 314 314 314 314 314 316 316 316 317 317 318 317 317 318 318 318 318 319
312 304 305 305 305 305 305 305 305 304 304 304 304 304 304 304 304 304 305 305 304 304 307 308 311 312 312 314 313 314 314 316 314 313 312 313 314 314 314 315 316 317 317 317 317
320 315 305 305 305 305 305 305 304 305 305 305 304 304 304 304 305 308 306 304 304 305 307 310 310 311 312 314 314 314 313 315 313 312 312 312 312 313 313 312 314 314 314 317 317
323 321 316 305 304 305 305 305 304 304 304 304 305 305 304 304 312 307 305 304 304 304 305 308 310 311 313 314 314 313 314 314 313 312 311 312 312 312 312 313 313 313 313 313 316
320 320 321 315 305 304 305 305 305 304 304 304 304 305 304 308 308 307 307 304 304 305 305 308 311 311 313 313 313 313 312 312 312 311 311 310 310 310 311 311 312 313 313 312 312
321 319 321 319 313 306 305 305 305 304 304 304 304 304 304 309 309 306 306 305 304 305 306 310 310 311 311 311 311 312 312 312 311 312 311 310 310 310 310 312 312 312 312 312 312
320 318 318 322 317 313 308 305 305 305 305 304 305 304 305 308 308 306 305 306 305 306 309 310 310 310 310 311 311 311 311 311 311 311 311 309 310 308 312 311 312 311 312 312 311
311 320 319 321 320 315 312 309 306 305 305 305 304 304 306 308 307 306 305 305 305 306 309 310 309 310 311 310 310 310 312 312 311 310 310 310 312 314 313 313 313 314 313 313 312
313 312 319 321 320 319 314 312 310 308 305 305 305 304 309 306 305 306 306 306 306 306 308 308 309 311 310 311 312 311 310 312 312 311 311 310 313 314 313 312 312 313 313 313 312
312 313 312 319 320 320 319 314 312 309 306 305 305 306 305 306 305 306 307 308 309 308 309 310 311 310 310 310 312 314 311 310 310 311 311 311 311 311 312 312 312 313 314 313 312
309 313 313 314 319 320 319 315 313 309 306 306 308 307 307 307 306 306 306 308 309 310 311 311 311 310 311 310 310 309 308 309 311 308 309 308 308 310 312 313 312 314 313 311 310
301 311 314 316 317 317 316 316 316 312 307 310 307 306 307 306 307 308 306 308 310 311 311 310 310 310 311 311 310 310 309 309 310 309 309 309 309 310 310 311 314 314 312 310 308
299 308 311 314 316 316 315 316 316 316 308 310 307 306 306 307 308 308 307 308 309 310 310 311 310 309 309 309 309 308 309 309 310 310 308 309 310 313 314 313 312 311 311 309 308
301 299 310 313 314 316 315 315 316 316 313 314 308 306 306 307 308 309 307 309 309 310 310 311 309 308 308 308 308 309 309 309 309 310 313 311 309 311 314 312 310 310 309 309 308
302 301 304 311 313 315 315 315 316 315 318 316 308 307 306 308 307 308 308 308 309 310 310 311 308 308 309 309 308 310 309 309 310 311 311 312 310 310 314 312 313 310 310 309 309
302 301 299 308 310 314 315 315 314 313 317 314 308 307 307 308 308 307 308 307 308 308 308 308 307 308 309 307 308 308 311 311 312 313 313 313 311 311 312 312 310 311 309 308 308
303 301 300 303 308 312 313 314 313 316 314 311 309 308 307 308 309 308 308 307 309 310 310 308 308 307 307 308 309 310 312 314 315 309 313 309 308 310 312 310 310 310 309 308 308
303 302 300 298 305 310 312 314 316 313 313 309 310 309 309 309 310 309 308 308 307 310 310 311 310 308 307 309 309 310 312 316 315 318 317 308 307 312 312 311 311 308 308 308 308
303 301 299 299 302 306 310 312 312 313 313 310 310 311 312 310 310 310 309 309 308 310 315 312 313 306 306 306 307 309 308 310 310 304 312 314 312 312 309 307 307 307 308 307 308
303 300 300 300 301 303 307 313 312 313 312 310 312 311 311 310 311 311 310 311 311 308 311 313 311 304 305 306 306 307 307 308 311 312 315 314 313 314 310 308 307 306 306 306 306
301 300 300 299 299 303 306 309 310 312 309 310 313 312 312 310 311 311 312 312 311 308 309 309 313 306 305 306 308 305 307 308 311 312 320 318 314 311 310 309 309 308 309 308 306
299 299 300 299 301 302 306 308 309 310 308 308 309 312 312 310 310 311 313 311 310 308 308 309 310 308 308 305 304 305 308 309 315 314 310 313 313 309 308 307 309 309 309 309 308
297 299 300 299 300 304 306 309 310 311 308 308 309 310 311 310 310 310 311 305 307 308 308 307 310 310 309 307 304 305 307 308 311 311 309 312 314 309 308 309 309 309 308 308 307
298 299 301 301 299 303 307 308 310 309 308 309 310 307 308 309 309 310 307 305 305 307 305 309 308 311 312 311 307 305 306 307 309 310 313 312 312 311 309 308 309 308 308 308 308
297 300 301 302 302 303 305 309 309 310 309 310 309 309 310 308 307 308 306 305 305 305 306 308 304 301 303 305 307 307 305 305 305 310 312 311 308 312 310 309 308 307 309 309 309
298 300 300 301 302 304 306 307 310 310 309 308 310 310 310 309 309 308 306 306 306 305 306 306 306 302 301 301 304 306 306 303 302 305 303 304 304 307 308 309 307 309 309 309 308
297 298 301 302 302 303 305 306 307 309 309 309 310 310 310 310 309 308 307 306 306 306 307 307 303 305 305 300 302 303 304 305 305 305 306 305 308 308 309 308 307 309 309 308 308
Wind_Speed
12 12 11 10 10 9 7 7 5 5 5 6 6 6 8 9 9 10 11 10 11 7 6 8 8 5 6 6 4 3 3 4 6 3 3 5 4 1 5 8 5 4 5 4 9
11 12 12 12 11 10 9 8 7 6 5 5 5 6 6 7 10 14 11 10 10 11 8 8 7 8 5 7 6 5 3 3 4 5 6 12 5 10 5 10 13 13 14 18 14
13 12 13 13 13 11 11 9 8 8 6 6 5 5 5 5 7 7 10 13 10 12 12 9 8 9 9 6 6 7 4 3 7 8 6 6 10 9 5 7 19 7 9 20 13
16 14 13 13 14 14 12 11 9 9 8 7 6 5 4 3 3 2 5 11 12 13 12 11 11 7 4 6 14 4 12 9 4 2 3 5 11 8 15 20 22 21 14 7 11
16 17 16 14 14 14 14 12 11 10 9 8 7 5 4 4 8 7 4 9 13 13 13 11 13 8 4 5 5 6 8 9 8 10 9 11 14 11 24 29 24 23 19 19 16
23 17 22 18 14 14 14 13 12 11 10 9 7 6 5 7 7 7 7 10 14 12 12 12 6 9 5 2 5 4 8 13 10 8 5 5 8 6 9 4 5 10 13 16 14
27 23 24 22 17 14 14 13 12 12 11 10 8 7 9 12 7 8 8 10 13 13 7 10 8 6 3 3 5 6 6 9 11 2 1 2 8 8 16 14 13 10 9 10 11
26 27 26 26 18 16 13 13 12 12 11 10 7 7 8 10 15 11 12 10 11 14 11 11 8 4 2 1 2 3 2 3 2 5 2 2 7 3 5 5 8 10 11 14 13
20 27 26 25 21 18 14 13 13 11 10 9 6 6 6 8 14 14 13 10 11 11 10 9 9 3 2 2 2 5 4 5 4 5 1 5 6 4 1 5 12 16 17 13 13
20 21 27 25 25 23 20 16 12 10 9 7 8 4 12 7 12 16 17 12 8 12 10 6 6 3 3 5 5 4 4 4 4 4 5 6 16 15 28 22 19 16 14 5 6
26 19 21 28 27 28 28 16 6 6 14 13 7 3 8 11 11 15 17 16 11 10 5 8 4 8 9 11 10 4 6 7 3 3 0 6 14 17 16 20 16 17 7 6 9
28 27 19 19 27 26 27 21 15 5 9 26 15 16 8 14 6 15 20 10 10 5 5 3 10 9 7 5 9 2 5 6 6 4 1 7 15 23 14 10 1 11 11 13 12
21 29 27 21 20 28 33 31 22 17 4 6 26 15 13 18 7 23 28 10 6 7 12 6 1 3 6 3 4 6 7 5 4 1 9 6 8 5 2 7 9 6 10 10 12
22 23 27 16 22 33 37 32 24 19 3 6 9 12 16 13 5 14 27 8 5 11 7 7 4 5 5 6 7 5 2 5 1 2 3 2 4 8 1 5 6 11 9 12 12
24 21 30 24 17 30 31 34 27 14 4 7 8 12 16 13 20 12 23 7 7 6 6 4 6 6 4 3 10 2 2 4 3 3 4 4 1 7 3 6 4 9 12 13 13
27 22 21 29 26 20 27 29 24 4 8 5 6 10 10 12 3 9 10 6 5 4 1 3 2 1 1 4 5 7 5 5 3 2 1 7 5 5 3 2 3 8 10 11 12
31 27 22 26 21 30 28 26 6 8 5 8 7 8 14 9 7 8 13 10 7 6 5 3 3 1 1 5 3 2 4 2 3 1 5 1 2 6 3 4 2 2 13 11 11
36 30 26 30 35 17 29 9 15 7 6 3 9 12 10 13 8 9 12 10 11 3 5 7 3 8 5 1 6 7 4 4 6 4 3 2 6 4 3 5 2 4 7 10 10
38 32 30 29 31 26 21 12 18 11 9 11 14 11 6 12 6 8 13 8 11 10 7 6 4 2 4 3 1 5 4 2 5 2 3 5 5 4 6 7 9 7 6 7 9
35 34 38 29 31 31 10 19 5 3 10 15 8 9 13 17 10 14 15 11 7 15 1 5 4 2 2 1 1 1 1 4 2 3 4 3 3 5 6 7 7 8 10 5 5
30 15 29 33 32 16 7 18 14 12 10 13 8 8 7 11 13 10 14 3 14 15 7 4 3 1 1 6 7 2 2 3 3 3 4 2 3 5 9 8 7 7 10 10 6
23 6 21 40 11 6 14 7 21 18 12 3 2 3 12 14 14 11 12 2 13 16 14 6 5 4 4 1 3 4 3 6 4 4 1 2 3 7 8 7 10 9 9 7 6
9 14 21 51 13 14 9 15 7 19 15 12 10 6 6 12 7 9 8 3 12 10 17 9 4 4 3 2 2 4 5 4 3 2 5 5 4 4 8 4 7 5 9 8 5
13 7 12 35 30 24 18 11 15 19 14 6 7 6 5 9 3 12 5 2 3 5 3 7 3 5 6 3 5 6 6 8 5 3 4 5 2 5 6 4 4 3 3 4 6
18 6 9 11 14 23 25 13 12 9 10 16 3 12 10 5 2 7 6 7 2 2 2 3 4 4 2 4 4 3 5 9 9 7 7 5 7 4 6 4 5 4 4 3 6
7 5 11 8 28 26 27 24 21 9 15 12 8 14 13 9 6 14 10 5 6 4 4 2 2 3 2 3 4 2 5 5 2 2 4 1 4 6 4 9 8 6 5 6 9
26 15 17 12 19 19 21 25 18 17 16 16 13 15 13 11 10 17 11 16 14 12 8 7 5 3 3 1 2 5 10 9 5 5 9 9 11 2 3 6 10 7 8 10 13
Wind_Direction
272 268 267 265 266 266 259 263 260 259 270 276 271 272 272 273 272 267 256 241 234 229 204 182 181 183 177 211 213 255 276 263 275 20 27 103 345 119 287 285 290 244 270 260 220
286 270 266 263 261 262 261 259 259 256 258 265 276 278 273 274 277 267 248 241 227 201 182 165 168 180 198 208 207 223 237 272 45 15 357 344 346 319 321 293 274 251 244 246 253
282 284 267 261 260 257 259 256 259 260 253 259 264 274 278 282 296 256 245 228 210 191 174 168 178 183 249 207 221 201 226 51 33 28 2 308 303 289 258 271 251 339 17 223 236
266 275 279 263 256 255 253 255 255 258 260 257 259 268 273 246 244 300 245 206 198 189 186 165 163 187 233 205 219 269 240 277 326 43 316 289 322 289 255 247 267 289 277 236 244
256 272 269 268 258 253 250 249 252 253 258 259 260 253 251 258 248 263 236 195 189 185 182 174 177 203 208 209 200 239 271 282 277 265 257 275 264 262 268 266 262 268 259 259 236
256 263 269 259 258 255 250 245 247 251 250 257 260 253 218 243 250 233 209 186 185 183 182 175 197 220 297 271 202 1 310 291 285 261 243 242 266 317 261 185 246 255 242 248 251
243 256 269 255 247 250 255 248 244 244 248 249 254 256 239 240 251 221 192 179 181 175 193 186 216 186 207 234 284 301 299 278 243 205 204 300 278 224 271 262 260 259 259 231 235
246 237 252 258 247 244 247 251 245 245 240 244 247 241 253 240 233 217 195 180 172 175 175 206 184 203 235 324 271 264 225 292 79 126 190 202 270 309 146 216 255 260 238 237 239
253 241 240 239 253 257 245 247 246 242 241 234 227 218 253 234 218 200 189 188 170 164 172 172 162 210 166 221 247 204 271 204 182 204 120 194 290 295 266 218 245 250 265 263 228
248 248 235 235 234 239 241 235 245 242 231 218 208 240 231 222 195 190 174 177 146 153 133 156 180 203 209 189 199 211 223 247 277 155 203 260 262 269 278 275 272 275 269 254 220
241 246 247 234 236 234 230 213 212 234 210 203 217 204 160 182 169 179 174 162 151 163 164 191 185 206 192 216 262 17 330 312 330 120 333 256 278 282 269 274 270 256 141 145 144
245 236 241 235 229 226 219 210 229 218 296 239 224 207 204 164 137 174 169 164 177 186 156 127 233 216 229 212 225 188 270 274 260 83 160 282 293 279 281 260 205 135 148 156 161
275 236 235 229 225 219 219 217 224 240 254 271 217 203 202 190 192 186 174 186 198 211 194 174 162 172 147 156 164 217 220 248 288 314 228 285 274 270 113 112 122 122 138 169 169
273 263 229 233 219 219 218 223 222 214 238 216 208 211 195 176 229 198 176 168 203 207 165 249 165 152 157 199 182 226 239 231 38 341 280 212 284 318 138 167 152 153 161 154 163
262 275 234 219 208 206 210 222 222 197 244 153 150 170 173 175 136 176 179 186 172 180 144 224 158 161 170 188 175 166 99 116 163 227 10 239 205 261 174 68 85 157 155 151 164
254 262 264 223 227 207 220 207 198 176 226 177 149 165 151 202 106 133 171 166 102 90 55 72 334 284 78 54 39 138 98 73 59 60 345 236 170 285 61 35 70 111 133 144 160
246 249 258 225 226 224 193 178 201 224 149 180 190 171 166 163 143 176 179 177 159 131 177 136 160 73 226 89 37 229 128 28 354 18 224 58 85 250 68 50 10 0 144 153 165
235 240 247 235 217 200 207 181 236 203 188 187 151 163 180 147 183 187 165 188 234 187 124 153 238 172 175 209 186 184 177 166 196 189 201 76 231 262 72 41 174 85 99 147 163
229 230 238 237 222 214 211 226 208 188 167 147 141 153 184 179 143 169 187 197 200 183 159 161 177 38 17 14 3 192 194 161 102 47 57 207 238 43 69 57 80 81 115 151 169
222 211 230 226 217 222 224 225 215 180 152 160 154 168 182 185 160 185 175 203 197 195 132 181 103 3 76 336 281 237 270 93 339 152 224 292 266 174 101 89 75 55 56 65 180
236 205 228 212 201 216 221 215 204 190 170 171 180 163 181 177 178 189 191 179 184 173 169 117 101 54 30 209 183 177 202 223 151 160 179 185 259 119 121 107 95 65 55 54 52
225 202 211 184 181 222 219 202 214 176 181 156 282 152 186 168 183 186 190 247 176 160 186 184 118 148 193 320 9 323 229 182 144 225 147 137 245 129 110 98 89 66 32 20 34
220 190 193 176 180 209 210 217 238 190 176 170 183 204 206 163 164 183 172 346 142 173 165 180 172 110 17 349 13 218 205 252 89 68 194 144 240 153 125 121 103 57 1 9 13
184 186 219 188 195 192 195 187 175 194 183 177 168 130 117 164 158 161 114 72 113 207 128 142 125 154 173 147 128 183 201 198 161 139 181 213 146 200 204 182 85 14 17 5 357
196 196 184 178 195 191 207 190 175 161 168 176 162 189 166 134 107 146 110 116 71 322 356 182 148 101 30 43 104 137 170 185 202 204 184 214 198 191 187 172 156 121 54 13 353
201 188 177 191 194 194 200 206 186 159 162 178 167 187 180 166 193 156 134 120 173 186 179 264 119 104 63 24 60 132 180 188 162 244 303 223 273 223 259 131 130 94 65 41 20
212 214 195 201 199 197 195 205 205 192 175 160 174 170 192 195 157 158 125 161 158 155 179 164 140 123 189 118 91 318 194 185 184 194 205 226 222 140 154 103 101 83 71 46 28